^^
Datos históricos de la estación: Murcia-Puente Tocinos
Diario Informe para Julio 2, 2019 Unidades:  Métrico    Inglés   Ambas
Diario Semanal Mensual Anual Configurable
  Máximo: Mínimo: Media:
Temperatura: 29.9 °C 24.1 °C 26.2 °C
Punto de rocio: 21.2 °C 16.8 °C 20 °C
Humedad: 83% 46% 70%
Velocidad viento: 19.3km/h 2.9km/h 9.5km/h
Racha viento: 35.4km/h - -
Viento- - ENE
Presión: 1014.2 hPa 1011.2 hPa -
Precipitación: 0.0 mm    
Historical Graphs
 
 
Tabla de datos para Julio 2, 2019
Hora Temperatura Punto de rocio Presión Viento Velocidad viento Racha viento Humedad Intensidad lluvia(por hora) Nubes
00:00 24.9 °C 20.8 °C 1013.8 hPa NE 11.3 km/h 20.9 km/h 78% 0.0 mm CLR
00:05 24.8 °C 20.9 °C 1013.8 hPa NE 11.3 km/h 20.9 km/h 79% 0.0 mm CLR
00:10 24.8 °C 20.9 °C 1013.8 hPa NE 10.0 km/h 11.1 km/h 79% 0.0 mm CLR
00:15 24.8 °C 20.9 °C 1013.8 hPa ENE 9.7 km/h 16.1 km/h 79% 0.0 mm CLR
00:20 24.8 °C 20.9 °C 1013.7 hPa ESE 7.6 km/h 9.3 km/h 79% 0.0 mm CLR
00:25 24.8 °C 20.9 °C 1013.7 hPa ENE 8.0 km/h 16.1 km/h 79% 0.0 mm CLR
00:30 24.7 °C 21.0 °C 1013.7 hPa NE 8.4 km/h 9.5 km/h 80% 0.0 mm CLR
00:35 24.7 °C 21.0 °C 1013.8 hPa ENE 8.0 km/h 12.9 km/h 80% 0.0 mm CLR
00:40 24.7 °C 21.0 °C 1013.8 hPa NE 6.4 km/h 11.1 km/h 80% 0.0 mm CLR
00:45 24.7 °C 21.0 °C 1013.8 hPa NE 8.0 km/h 14.5 km/h 80% 0.0 mm CLR
00:50 24.7 °C 21.0 °C 1013.8 hPa NE 7.6 km/h 11.1 km/h 80% 0.0 mm CLR
00:55 24.7 °C 21.0 °C 1013.8 hPa NE 8.0 km/h 11.3 km/h 80% 0.0 mm CLR
01:00 24.7 °C 21.0 °C 1013.8 hPa NE 8.0 km/h 11.3 km/h 80% 0.0 mm CLR
01:05 24.6 °C 21.1 °C 1013.8 hPa NE 8.0 km/h 11.3 km/h 81% 0.0 mm CLR
01:10 24.7 °C 21.2 °C 1013.8 hPa NNE 6.4 km/h 7.4 km/h 81% 0.0 mm CLR
01:15 24.6 °C 21.1 °C 1013.8 hPa NE 8.0 km/h 9.7 km/h 81% 0.0 mm CLR
01:20 24.6 °C 21.1 °C 1013.6 hPa ENE 5.0 km/h 7.6 km/h 81% 0.0 mm CLR
01:25 24.6 °C 21.1 °C 1013.6 hPa ENE 5.0 km/h 7.4 km/h 81% 0.0 mm CLR
01:30 24.6 °C 21.1 °C 1013.6 hPa East 5.0 km/h 5.6 km/h 81% 0.0 mm CLR
01:35 24.6 °C 21.1 °C 1013.6 hPa NE 4.8 km/h 9.7 km/h 81% 0.0 mm CLR
01:40 24.6 °C 20.9 °C 1013.6 hPa NE 4.8 km/h 11.3 km/h 80% 0.0 mm CLR
01:45 24.6 °C 20.9 °C 1013.6 hPa ENE 4.8 km/h 9.7 km/h 80% 0.0 mm CLR
01:50 24.6 °C 20.9 °C 1013.7 hPa NNE 4.7 km/h 9.3 km/h 80% 0.0 mm CLR
01:55 24.6 °C 20.9 °C 1013.7 hPa East 3.2 km/h 9.7 km/h 80% 0.0 mm CLR
02:00 24.6 °C 20.9 °C 1013.7 hPa East 3.2 km/h 8.0 km/h 80% 0.0 mm CLR
02:05 24.6 °C 20.9 °C 1013.6 hPa East 3.2 km/h 8.0 km/h 80% 0.0 mm CLR
02:10 24.6 °C 20.9 °C 1013.6 hPa ESE 4.7 km/h 7.4 km/h 80% 0.0 mm CLR
02:15 24.6 °C 20.9 °C 1013.6 hPa ESE 3.2 km/h 9.7 km/h 80% 0.0 mm CLR
02:20 24.6 °C 20.9 °C 1013.6 hPa ESE 4.8 km/h 9.7 km/h 80% 0.0 mm CLR
02:25 24.6 °C 20.9 °C 1013.6 hPa East 4.8 km/h 11.3 km/h 80% 0.0 mm CLR
02:30 24.6 °C 20.9 °C 1013.6 hPa ESE 5.0 km/h 7.4 km/h 80% 0.0 mm CLR
02:35 24.6 °C 20.9 °C 1013.4 hPa ENE 4.8 km/h 9.7 km/h 80% 0.0 mm CLR
02:40 24.6 °C 20.9 °C 1013.4 hPa NE 5.0 km/h 7.6 km/h 80% 0.0 mm CLR
02:45 24.7 °C 21.0 °C 1013.4 hPa ENE 5.0 km/h 7.6 km/h 80% 0.0 mm CLR
02:50 24.7 °C 21.0 °C 1013.3 hPa East 5.0 km/h 9.3 km/h 80% 0.0 mm CLR
02:55 24.6 °C 20.9 °C 1013.3 hPa East 4.8 km/h 9.7 km/h 80% 0.0 mm CLR
03:00 24.6 °C 20.9 °C 1013.3 hPa East 8.0 km/h 9.7 km/h 80% 0.0 mm CLR
03:05 24.6 °C 20.9 °C 1013.2 hPa ESE 6.4 km/h 9.3 km/h 80% 0.0 mm CLR
03:10 24.5 °C 20.8 °C 1013.2 hPa East 4.8 km/h 9.7 km/h 80% 0.0 mm CLR
03:15 24.6 °C 20.7 °C 1013.2 hPa ESE 4.8 km/h 9.7 km/h 79% 0.0 mm CLR
03:20 24.6 °C 20.9 °C 1013.1 hPa SSE 4.7 km/h 6.9 km/h 80% 0.0 mm CLR
03:25 24.6 °C 20.9 °C 1013.1 hPa ESE 3.2 km/h 11.3 km/h 80% 0.0 mm CLR
03:30 24.6 °C 20.9 °C 1013.1 hPa East 4.8 km/h 9.7 km/h 80% 0.0 mm CLR
03:35 24.6 °C 20.9 °C 1013.1 hPa East 4.8 km/h 9.7 km/h 80% 0.0 mm CLR
03:40 24.7 °C 21.0 °C 1013.1 hPa East 4.7 km/h 4.7 km/h 80% 0.0 mm CLR
03:45 24.7 °C 21.0 °C 1013.1 hPa East 3.2 km/h 6.4 km/h 80% 0.0 mm CLR
03:50 24.7 °C 20.8 °C 1013.0 hPa NE 2.9 km/h 7.4 km/h 79% 0.0 mm CLR
03:55 24.7 °C 20.8 °C 1013.0 hPa NNE 3.2 km/h 8.0 km/h 79% 0.0 mm CLR
04:00 24.6 °C 20.9 °C 1013.0 hPa NNE 4.8 km/h 8.0 km/h 80% 0.0 mm CLR
04:05 24.6 °C 20.9 °C 1012.8 hPa NNE 4.8 km/h 9.7 km/h 80% 0.0 mm CLR
04:10 24.6 °C 21.1 °C 1012.8 hPa NNE 4.8 km/h 9.7 km/h 81% 0.0 mm CLR
04:15 24.6 °C 21.1 °C 1012.8 hPa NNE 4.8 km/h 9.7 km/h 81% 0.0 mm CLR
04:20 24.5 °C 21.0 °C 1012.7 hPa NNE 6.4 km/h 7.4 km/h 81% 0.0 mm CLR
04:25 24.5 °C 21.0 °C 1012.7 hPa NNE 8.0 km/h 11.3 km/h 81% 0.0 mm CLR
04:30 24.4 °C 20.9 °C 1012.7 hPa NE 6.4 km/h 9.3 km/h 81% 0.0 mm CLR
04:35 24.4 °C 20.9 °C 1012.6 hPa NNE 8.0 km/h 12.9 km/h 81% 0.0 mm CLR
04:40 24.4 °C 20.9 °C 1012.6 hPa NE 6.9 km/h 9.3 km/h 81% 0.0 mm CLR
04:45 24.4 °C 20.9 °C 1012.6 hPa NNE 8.0 km/h 11.3 km/h 81% 0.0 mm CLR
04:50 24.4 °C 20.9 °C 1012.5 hPa NNE 6.9 km/h 7.4 km/h 81% 0.0 mm CLR
04:55 24.4 °C 20.9 °C 1012.5 hPa North 6.9 km/h 7.4 km/h 81% 0.0 mm CLR
05:00 24.4 °C 20.9 °C 1012.5 hPa NNE 4.8 km/h 9.7 km/h 81% 0.0 mm CLR
05:05 24.4 °C 20.9 °C 1012.4 hPa NE 4.8 km/h 9.7 km/h 81% 0.0 mm CLR
05:10 24.5 °C 21.0 °C 1012.4 hPa NNE 5.0 km/h 7.4 km/h 81% 0.0 mm CLR
05:15 24.5 °C 21.0 °C 1012.4 hPa NNE 4.8 km/h 9.7 km/h 81% 0.0 mm CLR
05:20 24.5 °C 21.0 °C 1012.4 hPa NE 5.8 km/h 8.7 km/h 81% 0.0 mm CLR
05:25 24.4 °C 20.9 °C 1012.4 hPa NNE 4.8 km/h 9.7 km/h 81% 0.0 mm CLR
05:30 24.5 °C 21.0 °C 1012.4 hPa NE 5.8 km/h 9.3 km/h 81% 0.0 mm CLR
05:35 24.4 °C 21.0 °C 1012.5 hPa NE 4.8 km/h 9.7 km/h 81% 0.0 mm CLR
05:40 24.4 °C 20.9 °C 1012.5 hPa ENE 6.4 km/h 9.3 km/h 81% 0.0 mm CLR
05:45 24.5 °C 21.0 °C 1012.5 hPa NE 8.0 km/h 12.9 km/h 81% 0.0 mm CLR
05:50 24.5 °C 20.8 °C 1012.4 hPa NNE 7.6 km/h 9.3 km/h 80% 0.0 mm CLR
05:55 24.5 °C 20.8 °C 1012.4 hPa NE 7.6 km/h 9.3 km/h 80% 0.0 mm CLR
06:00 24.6 °C 20.9 °C 1012.4 hPa NE 8.0 km/h 9.7 km/h 80% 0.0 mm CLR
06:05 24.6 °C 20.9 °C 1012.3 hPa ENE 8.0 km/h 12.9 km/h 80% 0.0 mm CLR
06:10 24.6 °C 20.9 °C 1012.3 hPa NE 6.4 km/h 9.3 km/h 80% 0.0 mm CLR
06:15 24.6 °C 20.9 °C 1012.3 hPa NE 8.0 km/h 11.3 km/h 80% 0.0 mm CLR
06:20 24.6 °C 20.9 °C 1012.4 hPa NE 7.6 km/h 13.0 km/h 80% 0.0 mm CLR
06:25 24.5 °C 20.8 °C 1012.4 hPa NE 8.0 km/h 14.5 km/h 80% 0.0 mm CLR
06:30 24.5 °C 20.8 °C 1012.4 hPa NE 9.7 km/h 14.5 km/h 80% 0.0 mm CLR
06:35 24.6 °C 20.9 °C 1012.5 hPa NE 9.7 km/h 12.9 km/h 80% 0.0 mm CLR
06:40 24.5 °C 20.8 °C 1012.5 hPa NE 9.7 km/h 16.1 km/h 80% 0.0 mm CLR
06:45 24.5 °C 20.8 °C 1012.5 hPa NE 9.7 km/h 12.9 km/h 80% 0.0 mm CLR
06:50 24.5 °C 20.6 °C 1012.6 hPa NE 8.7 km/h 14.8 km/h 79% 0.0 mm CLR
06:55 24.5 °C 20.6 °C 1012.6 hPa NE 9.7 km/h 16.1 km/h 79% 0.0 mm CLR
07:00 24.5 °C 20.6 °C 1012.6 hPa NE 11.3 km/h 16.1 km/h 79% 0.0 mm CLR
07:05 24.6 °C 20.7 °C 1012.7 hPa NE 11.3 km/h 14.5 km/h 79% 0.0 mm CLR
07:10 24.5 °C 20.6 °C 1012.7 hPa NE 9.7 km/h 14.5 km/h 79% 0.0 mm CLR
07:15 24.5 °C 20.6 °C 1012.7 hPa NE 9.7 km/h 16.1 km/h 79% 0.0 mm CLR
07:20 24.5 °C 20.6 °C 1012.7 hPa NE 9.7 km/h 14.5 km/h 79% 0.0 mm CLR
07:25 24.5 °C 20.6 °C 1012.7 hPa NE 9.7 km/h 14.5 km/h 79% 0.0 mm CLR
07:30 24.6 °C 20.7 °C 1012.7 hPa NE 8.7 km/h 13.0 km/h 79% 0.0 mm CLR
07:35 24.6 °C 20.7 °C 1012.8 hPa NE 9.7 km/h 14.5 km/h 79% 0.0 mm CLR
07:40 24.6 °C 20.7 °C 1012.8 hPa NE 9.5 km/h 7.4 km/h 79% 0.0 mm CLR
07:45 24.6 °C 20.7 °C 1012.8 hPa NE 9.7 km/h 14.5 km/h 79% 0.0 mm CLR
07:50 24.6 °C 20.7 °C 1012.9 hPa NE 8.0 km/h 19.3 km/h 79% 0.0 mm CLR
07:55 24.6 °C 20.7 °C 1012.9 hPa NE 8.0 km/h 14.5 km/h 79% 0.0 mm CLR
08:00 24.6 °C 20.7 °C 1012.9 hPa NE 9.7 km/h 14.5 km/h 79% 0.0 mm CLR
08:05 24.6 °C 20.5 °C 1013.1 hPa North 8.7 km/h 13.0 km/h 78% 0.0 mm CLR
08:10 24.7 °C 20.6 °C 1013.1 hPa ENE 8.7 km/h 11.1 km/h 78% 0.0 mm CLR
08:15 24.7 °C 20.6 °C 1013.1 hPa ENE 8.7 km/h 14.8 km/h 78% 0.0 mm CLR
08:20 24.7 °C 20.6 °C 1013.3 hPa North 8.4 km/h 11.1 km/h 78% 0.0 mm CLR
08:25 24.7 °C 20.6 °C 1013.3 hPa ENE 8.0 km/h 14.5 km/h 78% 0.0 mm CLR
08:30 24.7 °C 20.6 °C 1013.3 hPa NE 6.4 km/h 7.4 km/h 78% 0.0 mm CLR
08:35 24.8 °C 20.7 °C 1013.4 hPa NE 8.0 km/h 12.9 km/h 78% 0.0 mm CLR
08:40 24.8 °C 20.5 °C 1013.4 hPa ENE 6.9 km/h 13.0 km/h 77% 0.0 mm CLR
08:45 24.8 °C 20.5 °C 1013.4 hPa NE 8.0 km/h 16.1 km/h 77% 0.0 mm CLR
08:50 24.8 °C 20.5 °C 1013.6 hPa ENE 10.3 km/h 11.1 km/h 77% 0.0 mm CLR
08:55 24.8 °C 20.5 °C 1013.6 hPa NE 11.3 km/h 16.1 km/h 77% 0.0 mm CLR
09:00 24.8 °C 20.7 °C 1013.6 hPa NE 9.7 km/h 16.1 km/h 78% 0.0 mm CLR
09:05 24.8 °C 20.7 °C 1013.7 hPa NE 9.7 km/h 14.5 km/h 78% 0.0 mm CLR
09:10 24.8 °C 20.7 °C 1013.7 hPa NE 8.7 km/h 14.8 km/h 78% 0.0 mm CLR
09:15 24.8 °C 20.7 °C 1013.7 hPa ENE 9.7 km/h 16.1 km/h 78% 0.0 mm CLR
09:20 24.8 °C 20.5 °C 1013.9 hPa North 9.5 km/h 16.7 km/h 77% 0.0 mm CLR
09:25 24.9 °C 20.6 °C 1013.9 hPa ENE 9.7 km/h 19.3 km/h 77% 0.0 mm CLR
09:30 24.9 °C 20.6 °C 1013.9 hPa ENE 8.0 km/h 14.5 km/h 77% 0.0 mm CLR
09:35 24.9 °C 20.6 °C 1013.9 hPa ENE 8.0 km/h 22.5 km/h 77% 0.0 mm CLR
09:40 24.8 °C 20.7 °C 1013.9 hPa NE 11.3 km/h 20.9 km/h 78% 0.0 mm CLR
09:45 24.7 °C 20.6 °C 1013.9 hPa NE 11.3 km/h 20.9 km/h 78% 0.0 mm CLR
09:50 24.6 °C 20.7 °C 1014.1 hPa NE 11.1 km/h 20.4 km/h 79% 0.0 mm CLR
09:55 24.4 °C 20.7 °C 1014.1 hPa NE 11.3 km/h 19.3 km/h 80% 0.0 mm CLR
10:00 24.3 °C 20.8 °C 1014.1 hPa NE 12.9 km/h 19.3 km/h 81% 0.0 mm CLR
10:05 24.2 °C 21.1 °C 1014.2 hPa ENE 12.9 km/h 12.9 km/h 83% 0.0 mm CLR
10:10 24.1 °C 21.1 °C 1014.2 hPa ENE 7.6 km/h 11.1 km/h 83% 0.0 mm CLR
10:15 24.1 °C 21.1 °C 1014.2 hPa East 8.0 km/h 9.7 km/h 83% 0.0 mm CLR
10:20 24.1 °C 21.1 °C 1014.1 hPa NE 5.8 km/h 9.3 km/h 83% 0.0 mm CLR
10:25 24.2 °C 21.1 °C 1014.1 hPa ENE 4.8 km/h 8.0 km/h 83% 0.0 mm CLR
10:30 24.2 °C 21.1 °C 1014.1 hPa ENE 4.8 km/h 9.7 km/h 83% 0.0 mm CLR
10:35 24.3 °C 21.2 °C 1014.0 hPa ENE 4.8 km/h 9.7 km/h 83% 0.0 mm CLR
10:40 24.3 °C 21.1 °C 1014.0 hPa ENE 4.8 km/h 8.0 km/h 82% 0.0 mm CLR
10:45 24.4 °C 20.9 °C 1014.0 hPa East 4.8 km/h 9.7 km/h 81% 0.0 mm CLR
10:50 24.5 °C 21.0 °C 1013.9 hPa NE 5.8 km/h 9.3 km/h 81% 0.0 mm CLR
10:55 24.6 °C 21.1 °C 1013.9 hPa NE 4.8 km/h 9.7 km/h 81% 0.0 mm CLR
11:00 24.6 °C 20.9 °C 1013.9 hPa NE 3.2 km/h 6.4 km/h 80% 0.0 mm CLR
11:05 24.7 °C 21.0 °C 1013.8 hPa NE 3.2 km/h 11.3 km/h 80% 0.0 mm CLR
11:10 24.8 °C 21.1 °C 1013.8 hPa North 5.0 km/h 7.4 km/h 80% 0.0 mm CLR
11:15 24.9 °C 21.0 °C 1013.8 hPa NE 4.8 km/h 9.7 km/h 79% 0.0 mm CLR
11:20 25.1 °C 21.0 °C 1014.0 hPa NNE 5.0 km/h 9.3 km/h 78% 0.0 mm CLR
11:25 25.1 °C 20.8 °C 1014.0 hPa NE 4.8 km/h 11.3 km/h 77% 0.0 mm CLR
11:30 25.3 °C 21.2 °C 1014.0 hPa NNE 3.2 km/h 9.7 km/h 78% 0.0 mm CLR
11:35 25.3 °C 20.8 °C 1013.9 hPa NNE 3.2 km/h 11.3 km/h 76% 0.0 mm CLR
11:40 25.5 °C 20.9 °C 1013.9 hPa NNE 4.8 km/h 9.7 km/h 76% 0.0 mm CLR
11:45 25.7 °C 20.9 °C 1013.9 hPa NNE 4.8 km/h 14.5 km/h 75% 0.0 mm CLR
11:50 25.8 °C 20.2 °C 1013.8 hPa NE 6.9 km/h 16.7 km/h 71% 0.0 mm CLR
11:55 25.9 °C 20.4 °C 1013.8 hPa NE 8.0 km/h 19.3 km/h 72% 0.0 mm CLR
12:00 26.0 °C 20.3 °C 1013.8 hPa NE 9.7 km/h 12.9 km/h 71% 0.0 mm CLR
12:05 26.2 °C 20.5 °C 1013.8 hPa NE 9.7 km/h 16.1 km/h 71% 0.0 mm CLR
12:10 26.2 °C 20.3 °C 1013.8 hPa East 8.7 km/h 11.1 km/h 70% 0.0 mm CLR
12:15 26.4 °C 20.5 °C 1013.8 hPa ENE 9.7 km/h 20.9 km/h 70% 0.0 mm CLR
12:20 26.4 °C 20.3 °C 1013.7 hPa NNE 10.0 km/h 14.8 km/h 69% 0.0 mm CLR
12:25 26.6 °C 20.4 °C 1013.7 hPa ENE 9.7 km/h 19.3 km/h 69% 0.0 mm CLR
12:30 26.8 °C 20.6 °C 1013.7 hPa ENE 9.7 km/h 25.7 km/h 69% 0.0 mm CLR
12:35 27.1 °C 20.7 °C 1013.6 hPa ENE 9.7 km/h 25.7 km/h 68% 0.0 mm CLR
12:40 27.2 °C 20.6 °C 1013.6 hPa NE 8.0 km/h 11.3 km/h 67% 0.0 mm CLR
12:45 27.5 °C 20.6 °C 1013.6 hPa NE 8.0 km/h 14.5 km/h 66% 0.0 mm CLR
12:50 27.7 °C 20.5 °C 1013.5 hPa ENE 8.4 km/h 13.0 km/h 65% 0.0 mm CLR
12:55 27.7 °C 20.3 °C 1013.5 hPa NE 8.0 km/h 20.9 km/h 64% 0.0 mm CLR
13:00 27.7 °C 20.3 °C 1013.5 hPa NE 9.7 km/h 16.1 km/h 64% 0.0 mm CLR
13:05 27.8 °C 20.1 °C 1013.5 hPa ENE 9.7 km/h 16.1 km/h 63% 0.0 mm CLR
13:10 27.9 °C 19.9 °C 1013.5 hPa NNE 8.4 km/h 14.8 km/h 62% 0.0 mm CLR
13:15 28.1 °C 20.1 °C 1013.5 hPa NNE 8.0 km/h 14.5 km/h 62% 0.0 mm CLR
13:20 28.2 °C 20.2 °C 1013.3 hPa NNE 8.0 km/h 12.9 km/h 62% 0.0 mm CLR
13:25 28.2 °C 19.7 °C 1013.3 hPa NE 8.0 km/h 22.5 km/h 60% 0.0 mm CLR
13:30 28.3 °C 19.3 °C 1013.3 hPa NE 9.7 km/h 22.5 km/h 58% 0.0 mm CLR
13:35 28.7 °C 19.3 °C 1013.3 hPa NE 9.7 km/h 22.5 km/h 57% 0.0 mm CLR
13:40 28.8 °C 18.8 °C 1013.3 hPa East 11.3 km/h 22.5 km/h 55% 0.0 mm CLR
13:45 28.8 °C 19.4 °C 1013.3 hPa East 11.3 km/h 20.9 km/h 57% 0.0 mm CLR
13:50 28.9 °C 19.5 °C 1013.2 hPa ENE 11.3 km/h 22.5 km/h 57% 0.0 mm CLR
13:55 29.0 °C 19.3 °C 1013.2 hPa NE 11.3 km/h 22.5 km/h 56% 0.0 mm CLR
14:00 29.1 °C 19.4 °C 1013.2 hPa ENE 11.3 km/h 19.3 km/h 56% 0.0 mm CLR
14:05 29.3 °C 19.1 °C 1013.0 hPa East 11.3 km/h 20.9 km/h 54% 0.0 mm CLR
14:10 29.3 °C 19.1 °C 1013.0 hPa NE 10.3 km/h 11.1 km/h 54% 0.0 mm CLR
14:15 29.4 °C 19.4 °C 1013.0 hPa ENE 11.3 km/h 22.5 km/h 55% 0.0 mm CLR
14:20 29.4 °C 19.1 °C 1012.9 hPa NE 11.1 km/h 20.4 km/h 54% 0.0 mm CLR
14:25 29.3 °C 19.3 °C 1012.9 hPa NE 11.3 km/h 24.1 km/h 55% 0.0 mm CLR
14:30 29.5 °C 19.2 °C 1012.9 hPa ENE 11.1 km/h 24.1 km/h 54% 0.0 mm CLR
14:35 29.4 °C 19.1 °C 1012.8 hPa ENE 11.3 km/h 22.5 km/h 54% 0.0 mm CLR
14:40 29.4 °C 18.8 °C 1012.8 hPa ESE 10.3 km/h 22.2 km/h 53% 0.0 mm CLR
14:45 29.3 °C 18.7 °C 1012.8 hPa East 11.3 km/h 22.5 km/h 53% 0.0 mm CLR
14:50 29.2 °C 18.6 °C 1012.7 hPa SE 13.0 km/h 7.4 km/h 53% 0.0 mm CLR
14:55 29.4 °C 18.2 °C 1012.7 hPa NE 12.9 km/h 29.0 km/h 51% 0.0 mm CLR
15:00 29.4 °C 17.9 °C 1012.7 hPa NE 12.9 km/h 22.5 km/h 50% 0.0 mm CLR
15:05 29.6 °C 17.8 °C 1012.5 hPa NE 12.9 km/h 25.7 km/h 49% 0.0 mm CLR
15:10 29.6 °C 18.4 °C 1012.5 hPa NE 12.9 km/h 19.3 km/h 51% 0.0 mm CLR
15:15 29.7 °C 17.2 °C 1012.5 hPa NE 12.9 km/h 33.8 km/h 47% 0.0 mm CLR
15:20 29.7 °C 16.8 °C 1012.4 hPa NNE 17.2 km/h 24.1 km/h 46% 0.0 mm CLR
15:25 29.6 °C 17.8 °C 1012.4 hPa NE 16.1 km/h 25.7 km/h 49% 0.0 mm CLR
15:30 29.8 °C 17.3 °C 1012.4 hPa East 14.0 km/h 18.5 km/h 47% 0.0 mm CLR
15:35 29.9 °C 17.0 °C 1012.2 hPa ENE 14.5 km/h 25.7 km/h 46% 0.0 mm CLR
15:40 29.9 °C 17.0 °C 1012.2 hPa NE 13.7 km/h 22.2 km/h 46% 0.0 mm CLR
15:45 29.8 °C 17.6 °C 1012.2 hPa NNE 12.9 km/h 32.2 km/h 48% 0.0 mm CLR
15:50 29.7 °C 18.2 °C 1012.2 hPa East 16.1 km/h 24.1 km/h 50% 0.0 mm CLR
15:55 29.8 °C 17.6 °C 1012.2 hPa ENE 16.1 km/h 22.5 km/h 48% 0.0 mm CLR
16:00 29.7 °C 17.9 °C 1012.2 hPa ENE 12.9 km/h 29.0 km/h 49% 0.0 mm CLR
16:05 29.4 °C 17.6 °C 1012.0 hPa NE 12.9 km/h 27.4 km/h 49% 0.0 mm CLR
16:10 29.5 °C 17.7 °C 1012.0 hPa NE 17.2 km/h 27.8 km/h 49% 0.0 mm CLR
16:15 29.6 °C 17.7 °C 1012.0 hPa NE 16.1 km/h 27.4 km/h 49% 0.0 mm CLR
16:20 29.7 °C 17.6 °C 1012.0 hPa NE 14.5 km/h 24.1 km/h 48% 0.0 mm CLR
16:25 29.9 °C 17.4 °C 1012.0 hPa NE 14.5 km/h 27.4 km/h 47% 0.0 mm CLR
16:30 29.7 °C 17.5 °C 1012.0 hPa NE 14.5 km/h 35.4 km/h 48% 0.0 mm CLR
16:35 29.8 °C 17.9 °C 1012.0 hPa NE 14.5 km/h 25.7 km/h 49% 0.0 mm CLR
16:40 29.8 °C 18.3 °C 1012.0 hPa ENE 12.9 km/h 27.4 km/h 50% 0.0 mm CLR
16:45 29.6 °C 18.1 °C 1012.0 hPa ENE 12.9 km/h 30.6 km/h 50% 0.0 mm CLR
16:50 29.4 °C 18.2 °C 1011.9 hPa NE 19.3 km/h 29.0 km/h 51% 0.0 mm CLR
16:55 29.5 °C 18.3 °C 1011.9 hPa NE 19.3 km/h 29.0 km/h 51% 0.0 mm CLR
17:00 29.6 °C 18.7 °C 1011.9 hPa NE 14.5 km/h 33.8 km/h 52% 0.0 mm CLR
17:05 29.6 °C 18.3 °C 1011.8 hPa NE 14.5 km/h 27.4 km/h 51% 0.0 mm CLR
17:10 29.7 °C 18.5 °C 1011.8 hPa NE 16.1 km/h 24.1 km/h 51% 0.0 mm CLR
17:15 29.7 °C 18.8 °C 1011.8 hPa ENE 16.1 km/h 25.7 km/h 52% 0.0 mm CLR
17:20 29.6 °C 18.1 °C 1011.6 hPa ENE 14.8 km/h 25.9 km/h 50% 0.0 mm CLR
17:25 29.5 °C 18.6 °C 1011.6 hPa ENE 14.5 km/h 27.4 km/h 52% 0.0 mm CLR
17:30 29.6 °C 19.0 °C 1011.6 hPa ENE 16.1 km/h 30.6 km/h 53% 0.0 mm CLR
17:35 29.3 °C 18.8 °C 1011.6 hPa ENE 16.1 km/h 32.2 km/h 53% 0.0 mm CLR
17:40 29.1 °C 18.8 °C 1011.6 hPa North 15.6 km/h 24.1 km/h 54% 0.0 mm CLR
17:45 28.9 °C 18.7 °C 1011.6 hPa ENE 14.5 km/h 29.0 km/h 54% 0.0 mm CLR
17:50 29.1 °C 18.6 °C 1011.4 hPa ENE 16.1 km/h 27.8 km/h 53% 0.0 mm CLR
17:55 28.9 °C 18.7 °C 1011.4 hPa ENE 16.1 km/h 33.8 km/h 54% 0.0 mm CLR
18:00 28.8 °C 18.9 °C 1011.4 hPa ENE 16.1 km/h 22.5 km/h 55% 0.0 mm CLR
18:05 29.1 °C 18.8 °C 1011.4 hPa ENE 16.1 km/h 20.9 km/h 54% 0.0 mm CLR
18:10 29.1 °C 19.1 °C 1011.4 hPa ENE 12.9 km/h 29.0 km/h 55% 0.0 mm CLR
18:15 28.9 °C 19.0 °C 1011.4 hPa ENE 12.9 km/h 25.7 km/h 55% 0.0 mm CLR
18:20 28.8 °C 19.2 °C 1011.4 hPa ENE 12.9 km/h 27.4 km/h 56% 0.0 mm CLR
18:25 28.7 °C 18.8 °C 1011.4 hPa NE 12.9 km/h 27.4 km/h 55% 0.0 mm CLR
18:30 28.6 °C 18.9 °C 1011.4 hPa ENE 16.1 km/h 25.7 km/h 56% 0.0 mm CLR
18:35 28.4 °C 19.1 °C 1011.4 hPa ENE 16.1 km/h 30.6 km/h 57% 0.0 mm CLR
18:40 28.3 °C 18.9 °C 1011.4 hPa ENE 16.1 km/h 32.2 km/h 57% 0.0 mm CLR
18:45 28.3 °C 18.7 °C 1011.4 hPa ENE 16.1 km/h 24.1 km/h 56% 0.0 mm CLR
18:50 28.3 °C 18.7 °C 1011.3 hPa ENE 14.5 km/h 24.1 km/h 56% 0.0 mm CLR
18:55 28.2 °C 18.9 °C 1011.3 hPa NE 14.5 km/h 32.2 km/h 57% 0.0 mm CLR
19:00 28.1 °C 18.8 °C 1011.3 hPa NE 16.1 km/h 32.2 km/h 57% 0.0 mm CLR
19:05 28.2 °C 18.6 °C 1011.3 hPa NE 16.1 km/h 24.1 km/h 56% 0.0 mm CLR
19:10 28.0 °C 18.4 °C 1011.3 hPa NE 14.5 km/h 24.1 km/h 56% 0.0 mm CLR
19:15 28.1 °C 18.4 °C 1011.3 hPa NE 14.5 km/h 24.1 km/h 56% 0.0 mm CLR
19:20 28.1 °C 18.5 °C 1011.2 hPa NE 12.9 km/h 22.5 km/h 56% 0.0 mm CLR
19:25 28.1 °C 18.5 °C 1011.2 hPa NE 12.9 km/h 27.4 km/h 56% 0.0 mm CLR
19:30 27.8 °C 18.2 °C 1011.2 hPa NE 14.5 km/h 24.1 km/h 56% 0.0 mm CLR
19:35 27.8 °C 18.2 °C 1011.4 hPa NE 14.5 km/h 29.0 km/h 56% 0.0 mm CLR
19:40 27.7 °C 18.4 °C 1011.4 hPa NE 16.1 km/h 27.4 km/h 57% 0.0 mm CLR
19:45 27.5 °C 18.5 °C 1011.4 hPa NE 16.1 km/h 30.6 km/h 58% 0.0 mm CLR
19:50 27.6 °C 18.9 °C 1011.2 hPa NE 14.5 km/h 22.5 km/h 59% 0.0 mm CLR
19:55 27.6 °C 18.6 °C 1011.2 hPa NE 14.5 km/h 22.5 km/h 58% 0.0 mm CLR
20:00 27.4 °C 18.9 °C 1011.2 hPa NE 12.9 km/h 22.5 km/h 60% 0.0 mm CLR
20:05 27.5 °C 19.1 °C 1011.3 hPa NE 12.9 km/h 19.3 km/h 60% 0.0 mm CLR
20:10 27.3 °C 19.1 °C 1011.3 hPa ENE 12.2 km/h 25.9 km/h 61% 0.0 mm CLR
20:15 27.2 °C 19.0 °C 1011.3 hPa NE 12.9 km/h 25.7 km/h 61% 0.0 mm CLR
20:20 27.1 °C 19.2 °C 1011.4 hPa NE 13.7 km/h 25.9 km/h 62% 0.0 mm CLR
20:25 27.0 °C 19.1 °C 1011.4 hPa NE 12.9 km/h 25.7 km/h 62% 0.0 mm CLR
20:30 26.9 °C 19.3 °C 1011.4 hPa NE 14.5 km/h 22.5 km/h 63% 0.0 mm CLR
20:35 26.9 °C 19.3 °C 1011.6 hPa NE 14.5 km/h 19.3 km/h 63% 0.0 mm CLR
20:40 26.9 °C 19.3 °C 1011.6 hPa NE 10.0 km/h 13.0 km/h 63% 0.0 mm CLR
20:45 26.9 °C 19.3 °C 1011.6 hPa NE 9.7 km/h 16.1 km/h 63% 0.0 mm CLR
20:50 26.8 °C 19.4 °C 1011.7 hPa NE 9.5 km/h 13.0 km/h 64% 0.0 mm CLR
20:55 26.6 °C 19.5 °C 1011.7 hPa ENE 9.7 km/h 20.9 km/h 65% 0.0 mm CLR
21:00 26.6 °C 19.5 °C 1011.7 hPa ENE 9.7 km/h 19.3 km/h 65% 0.0 mm CLR
21:05 26.4 °C 19.6 °C 1011.4 hPa ENE 9.7 km/h 22.5 km/h 66% 0.0 mm CLR
21:10 26.3 °C 19.7 °C 1011.4 hPa NNE 10.0 km/h 13.0 km/h 67% 0.0 mm CLR
21:15 26.2 °C 19.6 °C 1011.4 hPa ENE 9.7 km/h 16.1 km/h 67% 0.0 mm CLR
21:20 26.1 °C 19.5 °C 1011.5 hPa East 8.7 km/h 13.0 km/h 67% 0.0 mm CLR
21:25 26.1 °C 19.7 °C 1011.5 hPa ENE 9.7 km/h 14.5 km/h 68% 0.0 mm CLR
21:30 25.9 °C 19.8 °C 1011.5 hPa NE 9.5 km/h 14.8 km/h 69% 0.0 mm CLR
21:35 25.8 °C 19.9 °C 1011.6 hPa NE 9.7 km/h 19.3 km/h 70% 0.0 mm CLR
21:40 25.7 °C 19.8 °C 1011.6 hPa NE 10.0 km/h 18.5 km/h 70% 0.0 mm CLR
21:45 25.6 °C 19.7 °C 1011.6 hPa NE 9.7 km/h 19.3 km/h 70% 0.0 mm CLR
21:50 25.5 °C 19.8 °C 1011.8 hPa NE 11.3 km/h 19.3 km/h 71% 0.0 mm CLR
21:55 25.4 °C 20.0 °C 1011.8 hPa NE 11.3 km/h 19.3 km/h 72% 0.0 mm CLR
22:00 25.3 °C 20.1 °C 1011.8 hPa NE 11.3 km/h 14.5 km/h 73% 0.0 mm CLR
22:05 25.3 °C 20.1 °C 1012.0 hPa NE 11.3 km/h 16.1 km/h 73% 0.0 mm CLR
22:10 25.2 °C 20.0 °C 1012.0 hPa NNE 10.3 km/h 14.8 km/h 73% 0.0 mm CLR
22:15 25.2 °C 20.0 °C 1012.0 hPa NE 11.3 km/h 16.1 km/h 73% 0.0 mm CLR
22:20 25.1 °C 19.9 °C 1012.3 hPa North 10.0 km/h 8.4 km/h 73% 0.0 mm CLR
22:25 25.1 °C 19.9 °C 1012.3 hPa NE 9.7 km/h 14.5 km/h 73% 0.0 mm CLR
22:30 24.9 °C 19.9 °C 1012.3 hPa NE 8.4 km/h 11.1 km/h 74% 0.0 mm CLR
22:35 24.9 °C 20.2 °C 1012.4 hPa NE 8.0 km/h 14.5 km/h 75% 0.0 mm CLR
22:40 24.8 °C 20.1 °C 1012.4 hPa NE 9.7 km/h 12.9 km/h 75% 0.0 mm CLR
22:45 24.8 °C 20.3 °C 1012.4 hPa NE 9.7 km/h 12.9 km/h 76% 0.0 mm CLR
22:50 24.8 °C 20.3 °C 1012.5 hPa NE 8.0 km/h 12.9 km/h 76% 0.0 mm CLR
22:55 24.8 °C 20.5 °C 1012.5 hPa NE 8.0 km/h 12.9 km/h 77% 0.0 mm CLR
23:00 24.7 °C 20.6 °C 1012.5 hPa NE 8.0 km/h 11.3 km/h 78% 0.0 mm CLR
23:05 24.6 °C 20.7 °C 1012.7 hPa NE 8.0 km/h 14.5 km/h 79% 0.0 mm CLR
23:10 24.6 °C 20.7 °C 1012.7 hPa NE 8.7 km/h 13.7 km/h 79% 0.0 mm CLR
23:15 24.4 °C 20.8 °C 1012.7 hPa NE 9.7 km/h 16.1 km/h 80% 0.0 mm CLR
23:20 24.4 °C 20.7 °C 1012.7 hPa NE 9.7 km/h 16.1 km/h 80% 0.0 mm CLR
23:25 24.4 °C 20.7 °C 1012.7 hPa NE 9.7 km/h 11.3 km/h 80% 0.0 mm CLR
23:30 24.4 °C 20.7 °C 1012.7 hPa NE 8.0 km/h 11.3 km/h 80% 0.0 mm CLR
23:35 24.3 °C 20.8 °C 1012.8 hPa NE 8.0 km/h 11.3 km/h 81% 0.0 mm CLR
23:40 24.3 °C 20.8 °C 1012.8 hPa NE 8.0 km/h 11.3 km/h 81% 0.0 mm CLR
23:45 24.2 °C 20.9 °C 1012.8 hPa NE 8.0 km/h 12.9 km/h 82% 0.0 mm CLR
23:50 24.2 °C 20.9 °C 1012.8 hPa NE 6.4 km/h 9.3 km/h 82% 0.0 mm CLR
23:55 24.1 °C 21.1 °C 1012.8 hPa NE 8.0 km/h 11.3 km/h 83% 0.0 mm CLR
Murcia-Puente Tocinos, España
Compliments of Weather Underground - 2.75 mb

La estación de MeteoMurcia.com, publica sus datos en los siguientes proyectos:

Weather Underground PWS IMURCIAP2 Meteoclimatic www.awekas.at

W3Counter
Web Analytics